contact:dominique.lefevre@mio.osupytheas.fr, maurice.libes@osupytheas.fr, didier.mallarino@osupytheas.fr
Project:EMSO http://www.emso-fr.org/EMSO-France
Depth: 2436.0 m
Title:EMSO Ligure Ouest : Data MII capteur AQUADOPP
Date,Latitude,Longitude,X_East,Y_North,Z_Up,Amplitude_X,Amplitude_Y,Amplitude_Z,Batterie,SoundSpeed,Heading,Pitch,Roll,Pressure,TIS,Speed,Direction
, degrees North, degrees East, m.s-1, m.s-1,m.s-1, 1, 1, 1, Volt, m.s-1, degree, degree, degree, dbar, degree_C, m.s-1, degree
2022-11-06T00:04:03,42.805,6.029,0.02,-0.013,-0.002,100.0,102.0,101.0,13.4,1505.2,334.3,-0.7,1.8,2471.015,13.28,0.023,123.0
2022-11-06T00:07:03,42.805,6.029,0.032,-0.002,0.006,101.0,101.0,100.0,13.4,1505.2,326.5,-0.8,1.8,2470.984,13.28,0.032,93.6
2022-11-06T00:10:03,42.805,6.029,0.018,0.0,-0.004,100.0,102.0,101.0,13.4,1505.2,327.2,-0.8,1.8,2470.97,13.28,0.018,90.0
2022-11-06T00:13:03,42.805,6.029,0.025,-0.001,0.013,100.0,101.0,100.0,13.4,1505.2,323.3,-0.8,1.8,2470.965,13.28,0.025,92.3
2022-11-06T00:16:03,42.805,6.029,0.006,0.001,-0.013,100.0,101.0,100.0,13.4,1505.2,322.1,-0.7,1.8,2471.016,13.28,0.006,80.5
2022-11-06T00:19:03,42.805,6.029,0.042,-0.009,0.033,101.0,103.0,100.0,13.4,1505.2,327.4,-0.8,1.8,2470.973,13.28,0.042,102.1
2022-11-06T00:22:03,42.805,6.029,0.049,-0.013,-0.017,101.0,102.0,102.0,13.4,1505.2,323.7,-0.8,1.8,2470.948,13.28,0.05,104.9
2022-11-06T00:25:03,42.805,6.029,0.015,-0.007,0.025,100.0,102.0,99.0,13.4,1505.2,325.2,-0.8,1.8,2470.959,13.28,0.016,115.0
2022-11-06T00:28:03,42.805,6.029,0.005,-0.011,0.001,100.0,102.0,100.0,13.4,1505.2,327.5,-0.8,1.8,2470.952,13.28,0.012,155.6
2022-11-06T00:31:03,42.805,6.029,0.026,-0.019,0.013,101.0,102.0,101.0,13.4,1505.2,333.1,-0.8,1.8,2471.0,13.29,0.032,126.2
2022-11-06T00:34:03,42.805,6.029,0.027,-0.01,0.003,99.0,102.0,101.0,13.4,1505.2,324.5,-0.7,1.8,2470.995,13.28,0.028,110.3
2022-11-06T00:37:03,42.805,6.029,0.027,0.016,0.051,101.0,101.0,100.0,13.4,1505.2,319.7,-0.8,1.8,2470.95,13.28,0.031,59.3
2022-11-06T00:40:03,42.805,6.029,0.014,-0.018,0.02,101.0,103.0,101.0,13.3,1505.2,324.2,-0.7,1.8,2471.001,13.29,0.022,142.1
2022-11-06T00:43:03,42.805,6.029,0.036,0.006,0.044,100.0,102.0,100.0,13.4,1505.2,316.7,-0.7,1.8,2470.993,13.29,0.036,80.5
2022-11-06T00:46:03,42.805,6.029,0.002,0.003,0.005,100.0,101.0,101.0,13.4,1505.2,331.3,-0.7,1.8,2470.956,13.28,0.003,33.7
2022-11-06T00:49:03,42.805,6.029,0.033,-0.012,0.026,100.0,101.0,100.0,13.4,1505.2,328.2,-0.8,1.8,2470.97,13.29,0.035,110.0
2022-11-06T00:52:03,42.805,6.029,0.032,-0.022,0.011,100.0,101.0,101.0,13.4,1505.2,332.2,-0.8,1.8,2470.951,13.28,0.038,124.5
2022-11-06T00:55:03,42.805,6.029,0.051,-0.006,0.061,101.0,101.0,100.0,13.3,1505.2,326.5,-0.8,1.8,2470.934,13.28,0.051,96.7
2022-11-06T00:58:03,42.805,6.029,0.015,-0.011,0.01,101.0,102.0,100.0,13.4,1505.2,326.6,-0.8,1.9,2470.93,13.28,0.018,126.3
2022-11-06T01:04:03,42.805,6.029,-0.012,0.009,0.02,102.0,103.0,102.0,13.4,1505.2,323.6,-0.8,1.8,2471.057,13.28,0.015,306.9
2022-11-06T01:07:03,42.805,6.029,0.036,-0.018,0.033,101.0,103.0,101.0,13.3,1505.2,326.3,-0.8,1.8,2470.972,13.28,0.04,116.6
2022-11-06T01:10:03,42.805,6.029,0.022,-0.021,-0.001,101.0,102.0,99.0,13.4,1505.2,329.8,-0.8,1.8,2471.044,13.28,0.03,133.7
2022-11-06T01:13:03,42.805,6.029,0.028,-0.009,0.009,101.0,101.0,101.0,13.3,1505.2,316.7,-0.8,1.9,2471.009,13.28,0.029,107.8
2022-11-06T01:16:03,42.805,6.029,0.006,-0.014,-0.005,102.0,102.0,100.0,13.3,1505.2,324.8,-0.7,1.9,2470.976,13.28,0.015,156.8
2022-11-06T01:19:03,42.805,6.029,-0.004,-0.011,-0.027,101.0,102.0,100.0,13.4,1505.2,326.3,-0.8,1.8,2470.972,13.28,0.011,200.0
2022-11-06T01:22:03,42.805,6.029,0.037,-0.011,0.016,100.0,103.0,100.0,13.4,1505.2,332.0,-0.8,1.8,2470.992,13.28,0.038,106.6
2022-11-06T01:25:03,42.805,6.029,0.033,-0.019,-0.033,102.0,102.0,100.0,13.4,1505.2,321.6,-0.8,1.8,2470.97,13.28,0.038,119.9
2022-11-06T01:28:03,42.805,6.029,0.033,0.006,0.017,100.0,101.0,100.0,13.3,1505.2,320.7,-0.7,1.8,2470.983,13.28,0.033,79.7
2022-11-06T01:31:03,42.805,6.029,0.008,-0.018,0.02,101.0,101.0,99.0,13.4,1505.2,329.0,-0.8,1.8,2470.953,13.28,0.019,156.0
2022-11-06T01:34:03,42.805,6.029,0.0,-0.004,-0.013,100.0,102.0,101.0,13.4,1505.2,322.5,-0.7,1.8,2470.982,13.28,0.004,180.0
2022-11-06T01:37:03,42.805,6.029,0.035,-0.011,0.009,98.0,101.0,101.0,13.4,1505.2,323.3,-0.8,1.8,2470.941,13.28,0.036,107.4
2022-11-06T01:40:03,42.805,6.029,0.013,0.002,0.03,101.0,101.0,101.0,13.4,1505.2,324.9,-0.7,1.8,2470.969,13.28,0.013,81.3
2022-11-06T01:43:03,42.805,6.029,0.021,0.005,0.026,100.0,101.0,101.0,13.4,1505.2,317.8,-0.8,1.8,2470.965,13.28,0.021,76.6
2022-11-06T01:46:03,42.805,6.029,0.026,-0.006,0.006,99.0,102.0,101.0,13.4,1505.2,327.5,-0.8,1.8,2470.976,13.28,0.026,103.0
2022-11-06T01:49:03,42.805,6.029,0.029,-0.019,0.005,101.0,103.0,100.0,13.4,1505.2,333.7,-0.8,1.8,2470.947,13.29,0.034,123.2
2022-11-06T01:52:03,42.805,6.029,0.016,-0.026,-0.012,101.0,102.0,100.0,13.4,1505.2,322.3,-0.7,1.8,2470.953,13.28,0.03,148.4
2022-11-06T01:55:03,42.805,6.029,0.055,-0.017,0.026,101.0,102.0,100.0,13.3,1505.2,321.1,-0.8,1.8,2470.951,13.28,0.057,107.2
2022-11-06T01:58:03,42.805,6.029,0.037,-0.003,0.013,101.0,101.0,100.0,13.3,1505.2,322.8,-0.7,1.8,2470.956,13.29,0.037,94.6
2022-11-06T02:04:03,42.805,6.029,0.016,0.0,0.044,100.0,103.0,100.0,13.4,1505.2,319.3,-0.8,1.8,2471.024,13.28,0.016,90.0
2022-11-06T02:07:03,42.805,6.029,0.044,-0.018,0.044,99.0,102.0,101.0,13.4,1505.2,331.0,-0.7,1.8,2471.025,13.28,0.047,112.2
2022-11-06T02:10:03,42.805,6.029,0.032,-0.036,-0.005,101.0,101.0,100.0,13.4,1505.2,321.6,-0.7,1.8,2471.011,13.28,0.048,138.4
2022-11-06T02:13:03,42.805,6.029,0.0,-0.03,-0.023,99.0,102.0,102.0,13.4,1505.2,334.6,-0.7,1.8,2471.016,13.28,0.03,180.0
2022-11-06T02:16:03,42.805,6.029,0.014,-0.027,-0.015,103.0,103.0,99.0,13.3,1505.2,318.9,-0.8,1.8,2470.996,13.28,0.03,152.6
2022-11-06T02:19:03,42.805,6.029,0.045,-0.007,0.03,98.0,104.0,103.0,13.4,1505.2,327.9,-0.8,1.8,2471.006,13.28,0.045,98.8
2022-11-06T02:22:03,42.805,6.029,0.021,0.013,0.004,100.0,102.0,100.0,13.4,1505.2,319.8,-0.7,1.8,2470.999,13.28,0.024,58.2
2022-11-06T02:25:03,42.805,6.029,0.037,-0.02,-0.023,101.0,102.0,100.0,13.3,1505.2,321.4,-0.8,1.8,2470.999,13.28,0.042,118.4
2022-11-06T02:28:03,42.805,6.029,0.015,-0.005,0.005,101.0,101.0,100.0,13.4,1505.2,328.4,-0.7,1.8,2471.022,13.28,0.015,108.4
2022-11-06T02:31:03,42.805,6.029,0.037,-0.017,0.035,101.0,102.0,100.0,13.3,1505.2,328.5,-0.8,1.8,2471.054,13.29,0.04,114.7
2022-11-06T02:34:03,42.805,6.029,0.004,-0.018,0.005,100.0,103.0,101.0,13.4,1505.2,321.1,-0.8,1.8,2471.002,13.28,0.018,167.5
2022-11-06T02:37:03,42.805,6.029,0.033,-0.01,0.0,101.0,101.0,101.0,13.4,1505.2,320.7,-0.8,1.8,2471.028,13.28,0.034,106.9
2022-11-06T02:40:03,42.805,6.029,0.033,-0.016,0.035,101.0,103.0,100.0,13.4,1505.2,334.3,-0.8,1.8,2471.003,13.28,0.036,115.9
2022-11-06T02:43:03,42.805,6.029,0.021,-0.013,-0.006,101.0,102.0,100.0,13.3,1505.2,329.2,-0.8,1.8,2471.048,13.28,0.024,121.8
2022-11-06T02:46:03,42.805,6.029,0.001,0.008,-0.01,101.0,102.0,100.0,13.3,1505.2,334.4,-0.8,1.8,2471.014,13.29,0.008,7.1
2022-11-06T02:49:02,42.805,6.029,0.032,-0.024,-0.009,101.0,102.0,100.0,13.4,1505.2,325.2,-0.7,1.8,2471.056,13.28,0.04,126.9
2022-11-06T02:52:03,42.805,6.029,0.014,0.006,0.035,101.0,101.0,101.0,13.4,1505.2,319.4,-0.7,1.9,2471.032,13.28,0.015,66.8
2022-11-06T02:55:03,42.805,6.029,0.026,-0.014,0.005,101.0,102.0,100.0,13.4,1505.2,328.3,-0.8,1.8,2471.036,13.29,0.029,118.3
2022-11-06T02:58:03,42.805,6.029,0.028,-0.007,0.03,101.0,102.0,100.0,13.4,1505.2,325.4,-0.8,1.8,2471.016,13.28,0.028,104.0
2022-11-06T03:04:03,42.805,6.029,0.039,-0.009,0.023,101.0,102.0,100.0,13.4,1505.2,327.5,-0.7,1.8,2471.084,13.28,0.04,103.0
2022-11-06T03:07:03,42.805,6.029,0.027,-0.026,-0.015,101.0,101.0,100.0,13.3,1505.2,320.3,-0.8,1.8,2471.068,13.28,0.037,133.9
2022-11-06T03:10:03,42.805,6.029,0.019,-0.011,0.019,100.0,101.0,101.0,13.3,1505.2,326.6,-0.8,1.8,2471.056,13.28,0.021,120.1
2022-11-06T03:13:03,42.805,6.029,0.015,-0.029,-0.025,102.0,102.0,100.0,13.4,1505.2,324.8,-0.7,1.9,2471.061,13.28,0.032,152.6
2022-11-06T03:16:03,42.805,6.029,0.054,0.0,0.032,101.0,102.0,100.0,13.3,1505.2,329.0,-0.7,1.8,2471.066,13.28,0.053,90.0
2022-11-06T03:19:02,42.805,6.029,0.022,-0.028,0.018,101.0,101.0,101.0,13.3,1505.2,320.1,-0.8,1.8,2471.091,13.28,0.035,141.8
2022-11-06T03:22:03,42.805,6.029,0.038,0.002,0.04,102.0,100.0,99.0,13.4,1505.2,330.6,-0.7,1.8,2471.04,13.28,0.038,87.0
2022-11-06T03:25:03,42.805,6.029,-0.003,-0.009,-0.005,101.0,103.0,99.0,13.4,1505.2,320.2,-0.8,1.8,2471.059,13.28,0.009,198.4
2022-11-06T03:28:03,42.805,6.029,-0.01,-0.004,-0.009,100.0,103.0,100.0,13.3,1505.2,317.7,-0.8,1.8,2471.059,13.28,0.01,248.2
2022-11-06T03:31:03,42.805,6.029,0.011,-0.017,-0.033,100.0,103.0,99.0,13.4,1505.2,316.7,-0.8,1.8,2471.066,13.28,0.02,147.1
2022-11-06T03:34:03,42.805,6.029,0.019,-0.032,-0.031,101.0,102.0,100.0,13.4,1505.2,332.8,-0.8,1.8,2471.09,13.28,0.037,149.3
2022-11-06T03:37:03,42.805,6.029,0.02,-0.017,0.006,100.0,102.0,100.0,13.4,1505.2,327.5,-0.8,1.8,2471.124,13.29,0.026,130.4
2022-11-06T03:40:03,42.805,6.029,0.004,-0.002,0.021,102.0,103.0,101.0,13.3,1505.2,332.8,-0.7,1.8,2471.05,13.29,0.004,116.6
2022-11-06T03:43:03,42.805,6.029,0.005,-0.013,0.024,101.0,103.0,100.0,13.4,1505.2,318.7,-0.7,1.8,2471.11,13.29,0.013,159.0
2022-11-06T03:46:03,42.805,6.029,0.015,0.026,0.062,101.0,102.0,101.0,13.4,1505.2,329.4,-0.8,1.9,2471.078,13.29,0.03,30.0
2022-11-06T03:49:03,42.805,6.029,0.016,-0.014,0.015,101.0,102.0,100.0,13.4,1505.2,327.7,-0.8,1.8,2471.04,13.29,0.021,131.2
2022-11-06T03:52:03,42.805,6.029,0.035,-0.012,0.007,101.0,102.0,100.0,13.3,1505.2,324.8,-0.8,1.8,2471.059,13.29,0.037,108.9
2022-11-06T03:55:03,42.805,6.029,0.043,-0.022,-0.007,101.0,103.0,101.0,13.3,1505.2,318.8,-0.8,1.8,2471.098,13.29,0.048,117.1
2022-11-06T03:58:03,42.805,6.029,0.024,-0.006,0.034,101.0,102.0,100.0,13.4,1505.2,330.6,-0.7,1.8,2471.059,13.29,0.024,104.0
2022-11-06T04:04:03,42.805,6.029,0.04,-0.019,-0.01,101.0,101.0,101.0,13.4,1505.2,333.4,-0.8,1.8,2471.123,13.28,0.044,115.4
2022-11-06T04:07:03,42.805,6.029,0.03,-0.002,0.008,100.0,102.0,100.0,13.3,1505.2,334.4,-0.8,1.8,2471.159,13.28,0.03,93.8
2022-11-06T04:10:03,42.805,6.029,0.028,0.0,0.024,101.0,102.0,101.0,13.4,1505.2,324.6,-0.7,1.8,2471.157,13.28,0.028,90.0
2022-11-06T04:13:03,42.805,6.029,0.024,-0.003,0.032,101.0,101.0,101.0,13.4,1505.2,321.4,-0.8,1.8,2471.124,13.28,0.024,97.1
2022-11-06T04:16:03,42.805,6.029,0.042,-0.009,0.004,101.0,102.0,100.0,13.4,1505.2,322.7,-0.7,1.8,2471.131,13.28,0.042,102.1
2022-11-06T04:19:02,42.805,6.029,0.006,0.013,0.019,101.0,101.0,100.0,13.3,1505.2,317.2,-0.7,1.8,2471.093,13.28,0.014,24.8
2022-11-06T04:22:03,42.805,6.029,0.027,-0.009,0.019,101.0,102.0,100.0,13.4,1505.2,328.9,-0.8,1.8,2471.1,13.28,0.028,108.4
2022-11-06T04:25:03,42.805,6.029,0.021,-0.015,-0.022,101.0,101.0,100.0,13.4,1505.2,325.9,-0.8,1.8,2471.119,13.28,0.025,125.5
2022-11-06T04:28:03,42.805,6.029,0.01,-0.009,0.0,101.0,102.0,100.0,13.4,1505.2,327.5,-0.7,1.8,2471.138,13.28,0.013,132.0
2022-11-06T04:31:03,42.805,6.029,0.02,-0.04,-0.021,101.0,102.0,101.0,13.3,1505.2,331.5,-0.8,1.8,2471.11,13.29,0.044,153.4
2022-11-06T04:34:03,42.805,6.029,0.001,0.012,0.039,101.0,100.0,101.0,13.3,1505.2,320.8,-0.7,1.8,2471.118,13.29,0.012,4.8
2022-11-06T04:37:03,42.805,6.029,0.021,-0.009,0.041,101.0,101.0,101.0,13.3,1505.2,329.4,-0.8,1.8,2471.129,13.29,0.022,113.2
2022-11-06T04:40:03,42.805,6.029,0.051,-0.012,0.038,101.0,102.0,100.0,13.4,1505.2,326.7,-0.8,1.8,2471.142,13.29,0.052,103.2
2022-11-06T04:43:03,42.805,6.029,0.008,-0.01,-0.005,101.0,102.0,100.0,13.3,1505.2,318.9,-0.8,1.8,2471.129,13.29,0.012,141.3
2022-11-06T04:46:03,42.805,6.029,0.036,-0.02,0.0,101.0,102.0,100.0,13.4,1505.2,330.2,-0.7,1.8,2471.112,13.29,0.041,119.1
2022-11-06T04:49:03,42.805,6.029,0.039,-0.015,-0.002,100.0,102.0,102.0,13.4,1505.2,323.4,-0.8,1.8,2471.111,13.29,0.041,111.0
2022-11-06T04:52:03,42.805,6.029,0.032,-0.029,-0.011,102.0,102.0,101.0,13.3,1505.2,322.4,-0.8,1.8,2471.13,13.29,0.043,132.2
2022-11-06T04:55:03,42.805,6.029,0.035,-0.026,0.014,100.0,102.0,101.0,13.4,1505.2,325.0,-0.8,1.8,2471.115,13.29,0.043,126.6
2022-11-06T04:58:03,42.805,6.029,0.008,-0.032,-0.021,101.0,102.0,100.0,13.3,1505.2,329.4,-0.7,1.8,2471.144,13.29,0.032,166.0
2022-11-06T05:04:03,42.805,6.029,0.026,-0.017,0.02,101.0,101.0,100.0,13.4,1505.2,327.9,-0.8,1.8,2471.17,13.28,0.031,123.2
2022-11-06T05:07:03,42.805,6.029,0.023,0.005,-0.007,101.0,102.0,100.0,13.4,1505.2,327.8,-0.8,1.8,2471.173,13.28,0.023,77.7
2022-11-06T05:10:03,42.805,6.029,-0.01,-0.018,-0.007,100.0,102.0,100.0,13.4,1505.2,332.4,-0.8,1.8,2471.148,13.28,0.02,209.1
2022-11-06T05:13:03,42.805,6.029,0.039,-0.041,0.017,101.0,101.0,100.0,13.3,1505.2,331.9,-0.8,1.8,2471.142,13.28,0.056,136.4
2022-11-06T05:16:03,42.805,6.029,0.024,-0.007,0.028,101.0,101.0,100.0,13.4,1505.2,324.5,-0.7,1.8,2471.113,13.28,0.025,106.3
2022-11-06T05:19:03,42.805,6.029,0.037,-0.034,0.005,101.0,103.0,101.0,13.3,1505.2,321.1,-0.8,1.8,2471.166,13.28,0.05,132.6
2022-11-06T05:22:03,42.805,6.029,0.022,-0.04,-0.019,100.0,102.0,100.0,13.3,1505.2,318.5,-0.8,1.8,2471.127,13.28,0.045,151.2
2022-11-06T05:25:03,42.805,6.029,0.013,-0.021,-0.015,100.0,101.0,101.0,13.4,1505.2,334.4,-0.8,1.8,2471.13,13.29,0.024,148.2
2022-11-06T05:28:03,42.805,6.029,0.012,-0.011,-0.015,101.0,103.0,101.0,13.3,1505.2,325.6,-0.7,1.8,2471.144,13.29,0.016,132.5
2022-11-06T05:31:03,42.805,6.029,0.045,-0.018,0.026,101.0,101.0,101.0,13.4,1505.2,326.6,-0.7,1.8,2471.148,13.29,0.048,111.8
2022-11-06T05:34:03,42.805,6.029,0.015,-0.015,-0.003,102.0,100.0,100.0,13.3,1505.2,335.4,-0.8,1.8,2471.131,13.29,0.021,135.0
2022-11-06T05:37:03,42.805,6.029,0.026,-0.028,0.012,100.0,102.0,101.0,13.3,1505.2,327.5,-0.8,1.8,2471.09,13.29,0.038,137.1
2022-11-06T05:40:03,42.805,6.029,0.026,0.0,0.025,100.0,103.0,99.0,13.4,1505.2,322.0,-0.8,1.8,2471.136,13.29,0.026,90.0
2022-11-06T05:43:03,42.805,6.029,0.027,-0.005,0.01,103.0,103.0,99.0,13.4,1505.2,333.1,-0.8,1.8,2471.135,13.29,0.027,100.5
2022-11-06T05:46:03,42.805,6.029,0.019,-0.021,0.002,101.0,102.0,101.0,13.4,1505.2,329.2,-0.8,1.8,2471.145,13.29,0.028,137.9
2022-11-06T05:49:03,42.805,6.029,0.036,-0.005,0.018,101.0,101.0,101.0,13.3,1505.2,325.5,-0.8,1.8,2471.1,13.29,0.036,97.9
2022-11-06T05:52:03,42.805,6.029,0.026,-0.006,-0.007,101.0,102.0,100.0,13.3,1505.2,328.0,-0.8,1.8,2471.1,13.29,0.026,103.0
2022-11-06T05:55:03,42.805,6.029,0.024,-0.022,0.001,102.0,99.0,100.0,13.4,1505.2,319.1,-0.8,1.9,2471.085,13.29,0.032,132.5
2022-11-06T05:58:03,42.805,6.029,0.016,-0.01,-0.012,102.0,100.0,100.0,13.4,1505.2,328.9,-0.7,1.8,2471.115,13.29,0.018,122.0
2022-11-06T06:04:03,42.805,6.029,0.031,-0.023,0.0,101.0,102.0,100.0,13.4,1505.2,321.9,-0.8,1.8,2471.166,13.28,0.038,126.6
2022-11-06T06:07:03,42.805,6.029,0.027,-0.004,0.013,101.0,101.0,100.0,13.3,1505.2,324.7,-0.8,1.8,2471.142,13.28,0.027,98.4
2022-11-06T06:10:03,42.805,6.029,0.036,-0.005,0.029,101.0,102.0,100.0,13.4,1505.2,325.4,-0.8,1.8,2471.174,13.28,0.036,97.9
2022-11-06T06:13:03,42.805,6.029,0.025,-0.004,0.026,101.0,102.0,101.0,13.4,1505.2,324.7,-0.8,1.8,2471.137,13.28,0.025,99.1
2022-11-06T06:16:03,42.805,6.029,0.022,-0.019,-0.014,101.0,102.0,100.0,13.4,1505.2,325.7,-0.8,1.8,2471.171,13.28,0.029,130.8
2022-11-06T06:19:03,42.805,6.029,0.035,-0.01,-0.002,101.0,102.0,100.0,13.3,1505.2,317.6,-0.8,1.8,2471.155,13.29,0.036,105.9
2022-11-06T06:22:03,42.805,6.029,0.025,0.0,0.006,102.0,101.0,101.0,13.4,1505.2,323.6,-0.8,1.8,2471.139,13.29,0.025,90.0
2022-11-06T06:25:03,42.805,6.029,0.022,-0.048,-0.038,100.0,102.0,101.0,13.3,1505.2,334.3,-0.8,1.8,2471.123,13.29,0.052,155.4
2022-11-06T06:28:03,42.805,6.029,0.041,-0.021,0.008,101.0,100.0,101.0,13.4,1505.2,334.7,-0.8,1.8,2471.129,13.29,0.046,117.1
2022-11-06T06:31:03,42.805,6.029,0.028,0.005,0.03,101.0,102.0,101.0,13.4,1505.2,323.7,-0.8,1.8,2471.13,13.29,0.028,79.9
2022-11-06T06:34:03,42.805,6.029,0.025,-0.019,0.014,101.0,102.0,101.0,13.4,1505.2,330.6,-0.8,1.8,2471.09,13.29,0.031,127.2
2022-11-06T06:37:03,42.805,6.029,0.011,-0.02,0.001,101.0,101.0,100.0,13.3,1505.2,330.1,-0.8,1.8,2471.122,13.29,0.022,151.2
2022-11-06T06:40:03,42.805,6.029,0.005,-0.018,-0.003,101.0,101.0,100.0,13.3,1505.2,329.0,-0.8,1.8,2471.113,13.29,0.018,164.5
2022-11-06T06:43:03,42.805,6.029,0.012,-0.018,-0.013,101.0,102.0,100.0,13.4,1505.2,317.4,-0.8,1.8,2471.143,13.29,0.021,146.3
2022-11-06T06:46:03,42.805,6.029,0.051,-0.018,0.03,100.0,102.0,101.0,13.4,1505.2,328.6,-0.8,1.8,2471.17,13.29,0.054,109.4
2022-11-06T06:49:03,42.805,6.029,0.006,-0.003,0.0,101.0,103.0,100.0,13.3,1505.2,322.3,-0.8,1.8,2471.12,13.29,0.006,116.6
2022-11-06T06:52:03,42.805,6.029,0.034,-0.003,-0.019,102.0,101.0,100.0,13.3,1505.2,321.3,-0.8,1.8,2471.118,13.29,0.034,95.0
2022-11-06T06:55:03,42.805,6.029,0.013,-0.009,0.03,101.0,102.0,100.0,13.4,1505.2,316.8,-0.8,1.8,2471.116,13.29,0.015,124.7
2022-11-06T06:58:03,42.805,6.029,0.024,-0.024,-0.027,101.0,101.0,101.0,13.4,1505.2,317.2,-0.7,1.9,2471.13,13.29,0.033,135.0
2022-11-06T07:04:03,42.805,6.029,0.046,-0.017,0.008,100.0,101.0,101.0,13.3,1505.2,325.2,-0.8,1.8,2471.123,13.28,0.049,110.3
2022-11-06T07:07:03,42.805,6.029,0.022,-0.022,0.0,101.0,101.0,100.0,13.3,1505.2,329.1,-0.7,1.8,2471.109,13.28,0.031,135.0
2022-11-06T07:10:03,42.805,6.029,-0.002,0.006,0.034,100.0,101.0,101.0,13.4,1505.2,318.1,-0.8,1.8,2471.144,13.28,0.006,341.6
2022-11-06T07:13:03,42.805,6.029,0.011,-0.028,-0.01,101.0,101.0,101.0,13.4,1505.2,321.1,-0.8,1.8,2471.108,13.28,0.03,158.6
2022-11-06T07:16:03,42.805,6.029,0.027,-0.016,-0.015,101.0,103.0,100.0,13.4,1505.2,334.0,-0.8,1.8,2471.166,13.28,0.031,120.7
2022-11-06T07:19:03,42.805,6.029,-0.012,-0.022,-0.002,103.0,102.0,99.0,13.3,1505.2,317.8,-0.8,1.8,2471.137,13.28,0.025,208.6
2022-11-06T07:22:03,42.805,6.029,0.012,-0.011,-0.002,100.0,100.0,102.0,13.4,1505.2,322.7,-0.8,1.8,2471.101,13.29,0.016,132.5
2022-11-06T07:25:03,42.805,6.029,0.019,0.001,0.016,100.0,102.0,100.0,13.4,1505.2,326.3,-0.8,1.8,2471.123,13.29,0.019,87.0
2022-11-06T07:28:03,42.805,6.029,0.01,-0.013,-0.012,101.0,101.0,100.0,13.4,1505.2,321.4,-0.8,1.8,2471.111,13.29,0.016,142.4
2022-11-06T07:31:03,42.805,6.029,0.034,-0.016,0.01,100.0,101.0,100.0,13.4,1505.2,322.5,-0.8,1.8,2471.144,13.29,0.037,115.2
2022-11-06T07:34:03,42.805,6.029,-0.002,0.004,0.0,101.0,101.0,101.0,13.4,1505.2,321.5,-0.8,1.8,2471.077,13.29,0.004,333.4
2022-11-06T07:37:03,42.805,6.029,0.013,-0.014,-0.013,101.0,102.0,100.0,13.3,1505.2,329.1,-0.8,1.8,2471.146,13.29,0.019,137.1
2022-11-06T07:40:03,42.805,6.029,0.013,0.009,0.012,100.0,102.0,100.0,13.3,1505.2,332.8,-0.8,1.8,2471.122,13.29,0.015,55.3
2022-11-06T07:43:03,42.805,6.029,0.019,-0.011,-0.013,100.0,102.0,100.0,13.4,1505.2,319.4,-0.8,1.9,2471.107,13.29,0.021,120.1
2022-11-06T07:46:03,42.805,6.029,0.007,-0.014,-0.002,101.0,102.0,101.0,13.3,1505.2,328.0,-0.7,1.8,2471.15,13.29,0.015,153.4
2022-11-06T07:49:03,42.805,6.029,0.006,0.007,0.019,101.0,102.0,100.0,13.4,1505.2,322.0,-0.8,1.8,2471.11,13.29,0.009,40.6
2022-11-06T07:52:03,42.805,6.029,0.009,-0.008,0.004,102.0,101.0,101.0,13.4,1505.2,329.7,-0.8,1.8,2471.101,13.29,0.012,131.6
2022-11-06T07:55:03,42.805,6.029,0.008,0.0,0.028,101.0,102.0,100.0,13.4,1505.2,327.1,-0.8,1.8,2471.113,13.29,0.008,90.0
2022-11-06T07:58:03,42.805,6.029,0.021,-0.015,0.033,101.0,101.0,100.0,13.4,1505.2,330.6,-0.8,1.8,2471.101,13.29,0.025,125.5
2022-11-06T08:04:03,42.805,6.029,0.031,-0.031,0.009,100.0,101.0,101.0,13.4,1505.2,333.7,-0.7,1.8,2471.147,13.28,0.043,135.0
2022-11-06T08:07:03,42.805,6.029,0.005,-0.017,-0.024,102.0,102.0,100.0,13.4,1505.2,331.0,-0.8,1.8,2471.148,13.28,0.017,163.6
2022-11-06T08:10:03,42.805,6.029,0.028,-0.013,-0.003,100.0,101.0,101.0,13.4,1505.2,332.0,-0.7,1.8,2471.146,13.28,0.03,114.9
2022-11-06T08:13:03,42.805,6.029,0.0,-0.019,-0.017,101.0,102.0,101.0,13.4,1505.2,330.6,-0.7,1.8,2471.106,13.28,0.019,180.0
2022-11-06T08:16:03,42.805,6.029,0.037,-0.008,0.008,101.0,101.0,101.0,13.3,1505.2,329.1,-0.7,1.8,2471.113,13.28,0.037,102.2
2022-11-06T08:19:03,42.805,6.029,0.027,0.001,0.013,100.0,102.0,101.0,13.4,1505.2,318.1,-0.8,1.8,2471.122,13.29,0.027,87.9
2022-11-06T08:22:03,42.805,6.029,0.012,-0.013,-0.013,102.0,101.0,101.0,13.4,1505.2,322.0,-0.8,1.8,2471.107,13.29,0.017,137.3
2022-11-06T08:25:03,42.805,6.029,0.026,-0.006,0.003,101.0,101.0,101.0,13.4,1505.2,320.7,-0.7,1.8,2471.12,13.29,0.026,103.0
2022-11-06T08:28:03,42.805,6.029,0.021,-0.006,0.015,101.0,102.0,100.0,13.3,1505.2,327.1,-0.8,1.8,2471.086,13.29,0.021,105.9
2022-11-06T08:31:03,42.805,6.029,0.008,-0.002,0.025,102.0,100.0,100.0,13.4,1505.2,327.7,-0.8,1.8,2471.101,13.29,0.008,104.0
2022-11-06T08:34:03,42.805,6.029,0.004,-0.002,0.008,101.0,102.0,100.0,13.4,1505.2,324.0,-0.8,1.8,2471.114,13.29,0.004,116.6
2022-11-06T08:37:03,42.805,6.029,0.006,-0.014,-0.016,102.0,103.0,100.0,13.4,1505.2,332.1,-0.7,1.8,2471.103,13.29,0.015,156.8
2022-11-06T08:40:03,42.805,6.029,0.037,0.002,-0.002,101.0,101.0,101.0,13.4,1505.2,321.8,-0.8,1.8,2471.037,13.29,0.037,86.9
2022-11-06T08:43:03,42.805,6.029,0.01,0.011,0.006,103.0,100.0,101.0,13.4,1505.2,317.9,-0.8,1.8,2471.069,13.29,0.014,42.3
2022-11-06T08:46:03,42.805,6.029,0.011,-0.006,-0.036,102.0,101.0,101.0,13.4,1505.2,319.2,-0.7,1.8,2471.081,13.29,0.012,118.6
2022-11-06T08:49:02,42.805,6.029,0.03,-0.02,0.025,102.0,101.0,100.0,13.3,1505.2,328.2,-0.8,1.8,2471.1,13.29,0.036,123.7
2022-11-06T08:52:03,42.805,6.029,0.003,-0.008,0.017,102.0,102.0,101.0,13.4,1505.2,319.7,-0.8,1.8,2471.05,13.29,0.008,159.4
2022-11-06T08:55:03,42.805,6.029,0.001,-0.002,-0.007,101.0,101.0,102.0,13.4,1505.2,332.7,-0.7,1.8,2471.055,13.29,0.002,153.4
2022-11-06T08:58:03,42.805,6.029,0.029,-0.016,0.006,101.0,101.0,102.0,13.4,1505.2,332.0,-0.8,1.8,2471.074,13.29,0.033,118.9
2022-11-06T09:04:03,42.805,6.029,0.003,-0.008,0.007,101.0,102.0,101.0,13.4,1505.2,323.9,-0.8,1.8,2471.152,13.28,0.008,159.4
2022-11-06T09:07:03,42.805,6.029,0.017,0.002,0.019,101.0,101.0,100.0,13.4,1505.2,321.5,-0.8,1.8,2471.09,13.28,0.017,83.3
2022-11-06T09:10:03,42.805,6.029,0.015,-0.005,0.02,101.0,102.0,101.0,13.4,1505.2,326.7,-0.8,1.8,2471.13,13.28,0.015,108.4
2022-11-06T09:13:03,42.805,6.029,0.043,-0.016,0.031,101.0,102.0,100.0,13.4,1505.2,322.0,-0.8,1.9,2471.086,13.28,0.045,110.4
2022-11-06T09:16:03,42.805,6.029,0.001,0.001,0.0,101.0,101.0,101.0,13.3,1505.2,321.8,-0.7,1.8,2471.06,13.29,0.001,45.0
2022-11-06T09:19:03,42.805,6.029,0.015,-0.007,-0.016,102.0,102.0,101.0,13.3,1505.2,322.6,-0.8,1.8,2471.075,13.29,0.016,115.0
2022-11-06T09:22:03,42.805,6.029,0.015,0.01,0.012,101.0,101.0,101.0,13.4,1505.2,320.7,-0.8,1.8,2471.043,13.29,0.018,56.3
2022-11-06T09:25:03,42.805,6.029,0.015,-0.011,0.008,102.0,102.0,101.0,13.4,1505.2,319.9,-0.7,1.8,2471.078,13.29,0.018,126.3
2022-11-06T09:28:03,42.805,6.029,0.011,-0.011,-0.017,102.0,101.0,101.0,13.4,1505.2,318.0,-0.8,1.8,2471.056,13.29,0.015,135.0
2022-11-06T09:31:03,42.805,6.029,0.001,-0.004,0.023,102.0,102.0,101.0,13.4,1505.2,318.9,-0.7,1.8,2471.05,13.29,0.004,166.0
2022-11-06T09:34:03,42.805,6.029,0.024,-0.013,0.006,101.0,102.0,101.0,13.4,1505.2,333.4,-0.8,1.8,2471.047,13.29,0.027,118.4
2022-11-06T09:37:03,42.805,6.029,0.001,-0.022,-0.005,102.0,102.0,101.0,13.4,1505.2,321.0,-0.8,1.8,2471.086,13.29,0.022,177.4
2022-11-06T09:40:03,42.805,6.029,-0.015,-0.013,0.019,101.0,101.0,102.0,13.3,1505.2,318.4,-0.8,1.8,2471.028,13.29,0.019,229.1
2022-11-06T09:43:03,42.805,6.029,0.017,-0.007,-0.012,102.0,102.0,100.0,13.4,1505.2,319.8,-0.8,1.8,2471.074,13.29,0.018,112.4
2022-11-06T09:46:03,42.805,6.029,0.021,-0.03,-0.009,102.0,101.0,101.0,13.4,1505.2,330.2,-0.8,1.8,2471.07,13.29,0.036,145.0
2022-11-06T09:49:03,42.805,6.029,0.019,0.014,0.002,101.0,102.0,101.0,13.3,1505.2,321.2,-0.8,1.8,2471.06,13.29,0.023,53.6
2022-11-06T09:52:03,42.805,6.029,0.018,-0.012,-0.005,101.0,101.0,102.0,13.4,1505.2,318.1,-0.8,1.8,2471.021,13.29,0.021,123.7
2022-11-06T09:55:03,42.805,6.029,0.024,-0.01,0.017,101.0,102.0,101.0,13.3,1505.2,320.0,-0.7,1.8,2471.031,13.29,0.026,112.6
2022-11-06T09:58:03,42.805,6.029,0.001,0.0,0.033,102.0,102.0,101.0,13.4,1505.2,327.5,-0.8,1.8,2471.042,13.29,0.001,90.0